OE5ERN-10 Weather Reports


time (UTC)temp
C
wind
direction
speed
KPH
gust
KPH
rain 1hr
cm
rain 24hr
cm
rain mn
cm
humidity
%
barometer
mb
20260507061029 30 247 3.2 3.2 0.00 0.00 0.00 35 1016.7
20260507055529 23 247 0.0 8.0 0.00 0.00 0.00 50 1016.7
20260507054029 17 270 0.0 3.2 0.00 0.00 0.00 65 1016.6
20260507052529 13 315 0.0 0.0 0.00 0.00 0.00 78 1016.4
20260507051029 11 315 0.0 0.0 0.00 0.00 0.00 80 1016.4
20260507045529 10 292 0.0 0.0 0.00 0.00 0.00 82 1016.3
20260507044029 9 292 3.2 3.2 0.00 0.00 0.00 81 1016.0
20260507042529 8 292 0.0 0.0 0.00 0.00 0.00 81 1016.1
20260507041029 9 270 0.0 0.0 0.00 0.00 0.00 80 1015.7
20260507035529 9 180 0.0 0.0 0.00 0.00 0.00 80 1015.7
20260507034029 10 180 1.6 1.6 0.00 0.00 0.00 80 1015.5
20260507032529 9 180 3.2 3.2 0.00 0.00 0.00 80 1015.3
20260507031029 9 270 0.0 0.0 0.00 0.00 0.00 79 1015.2
20260507025529 9 247 0.0 0.0 0.00 0.00 0.00 79 1015.1
20260507024030 10 292 0.0 0.0 0.00 0.00 0.00 78 1015.1
20260507022529 10 247 1.6 1.6 0.00 0.00 0.00 78 1015.1
20260507021029 10 247 0.0 0.0 0.00 0.00 0.00 77 1015.1
20260507015529 10 292 0.0 0.0 0.00 0.00 0.00 77 1015.1
20260507014029 10 292 0.0 0.0 0.00 0.00 0.00 75 1014.9
20260507012529 11 270 0.0 0.0 0.00 0.00 0.00 75 1014.9
20260507011029 11 270 3.2 11.3 0.00 0.00 0.00 75 1014.8
20260507005529 12 292 3.2 3.2 0.00 0.00 0.00 75 1014.6
20260507004029 11 270 9.7 9.7 0.00 0.00 0.00 75 1014.5
20260507002529 12 292 0.0 0.0 0.00 0.00 0.00 74 1014.5
20260507001029 12 270 0.0 3.2 0.00 0.00 0.00 74 1014.7
20260506235529 12 270 0.0 0.0 0.00 0.00 0.00 75 1014.7
20260506234029 12 225 3.2 3.2 0.00 0.00 0.00 75 1014.5
20260506232529 12 247 3.2 3.2 0.00 0.00 0.00 74 1014.4
20260506231029 12 247 4.8 9.7 0.00 0.00 0.00 75 1014.4
20260506225529 12 225 3.2 9.7 0.00 0.00 0.00 75 1014.0
20260506224029 13 270 6.4 8.0 0.00 0.00 0.00 75 1013.7
20260506222529 13 270 11.3 11.3 0.00 0.00 0.00 76 1013.7
20260506221029 13 247 1.6 16.1 0.00 0.00 0.00 76 1013.4
20260506215529 13 270 0.0 3.2 0.00 0.00 0.00 76 1013.0
20260506214029 13 202 4.8 4.8 0.00 0.00 0.00 77 1013.0
20260506212529 13 247 8.0 8.0 0.00 0.00 0.00 77 1012.8
20260506211030 13 247 0.0 3.2 0.00 0.00 0.00 77 1012.6
20260506205530 13 292 12.9 12.9 0.00 0.00 0.00 78 1012.2
20260506204030 14 270 17.7 17.7 0.00 0.00 0.00 79 1012.1
20260506202530 13 292 6.4 14.5 0.00 0.00 0.00 78 1011.9
20260506201030 13 270 6.4 6.4 0.00 0.00 0.00 76 1011.4
20260506195530 14 292 3.2 3.2 0.00 0.00 0.00 73 1011.0
20260506194030 15 270 1.6 22.5 0.00 0.00 0.00 69 1010.7
20260506192530 16 315 6.4 9.7 0.00 0.00 0.00 60 1010.2
20260506191030 16 337 12.9 12.9 0.00 0.00 0.00 56 1009.1
20260506185530 17 0 16.1 16.1 0.00 0.10 0.00 56 1008.4
20260506184030 17 315 16.1 16.1 0.00 0.10 0.00 56 1008.0
20260506182530 19 0 24.1 24.1 0.00 0.10 0.00 51 1007.9
20260506181030 21 270 25.7 27.4 0.00 0.10 0.00 45 1007.5
20260506175530 21 202 0.0 0.0 0.00 0.10 0.00 40 1006.6
20260506174030 22 112 3.2 4.8 0.00 0.10 0.00 40 1006.1
20260506172530 22 157 3.2 6.4 0.00 0.10 0.00 39 1005.7
20260506171030 23 90 8.0 8.0 0.00 0.10 0.00 37 1005.1
20260506165530 25 90 3.2 6.4 0.00 0.10 0.00 33 1005.1
20260506164030 26 112 3.2 3.2 0.00 0.10 0.00 33 1005.3
20260506162530 26 112 0.0 8.0 0.00 0.10 0.00 34 1005.8
20260506161030 26 135 4.8 9.7 0.00 0.10 0.00 33 1005.7
20260506155530 26 112 4.8 16.1 0.00 0.10 0.00 34 1006.0
20260506154030 26 135 12.9 12.9 0.00 0.10 0.00 35 1006.1
20260506152530 26 112 3.2 9.7 0.00 0.10 0.00 35 1006.3
20260506151030 26 45 4.8 4.8 0.00 0.10 0.00 35 1006.6
20260506145530 27 67 1.6 1.6 0.00 0.10 0.00 34 1006.7
20260506144030 27 112 3.2 3.2 0.00 0.10 0.00 35 1006.8
20260506142530 26 45 3.2 3.2 0.00 0.10 0.00 32 1007.0
20260506141030 28 112 3.2 3.2 0.00 0.10 0.00 31 1007.1
20260506135530 29 90 0.0 0.0 0.00 0.10 0.00 30 1007.4
20260506134030 28 157 0.0 0.0 0.00 0.10 0.00 31 1007.5
20260506132530 27 90 1.6 9.7 0.00 0.10 0.00 33 1007.7
20260506131030 27 112 6.4 9.7 0.00 0.10 0.00 31 1008.1
20260506125530 26 202 1.6 6.4 0.00 0.10 0.00 34 1008.3
20260506124030 26 180 0.0 6.4 0.00 0.10 0.00 36 1008.3
20260506122530 26 112 8.0 8.0 0.00 0.10 0.00 35 1008.7
20260506121030 26 202 3.2 3.2 0.00 0.10 0.00 37 1008.8
20260506115530 26 112 4.8 6.4 0.00 0.10 0.00 36 1009.0
20260506114030 28 22 0.0 3.2 0.00 0.10 0.00 34 1009.2
20260506112530 28 270 0.0 0.0 0.00 0.10 0.00 37 1009.5
20260506111030 27 90 1.6 6.4 0.00 0.10 0.00 36 1009.8
20260506105530 27 112 3.2 9.7 0.00 0.10 0.00 38 1009.8
20260506104030 26 112 3.2 6.4 0.00 0.10 0.00 39 1010.2
20260506102530 26 67 0.0 3.2 0.00 0.10 0.00 40 1010.4
20260506101031 26 45 1.6 3.2 0.00 0.10 0.00 40 1010.5
20260506095530 26 67 0.0 3.2 0.00 0.10 0.00 39 1010.7
20260506094030 25 67 0.0 0.0 0.00 0.10 0.00 40 1010.9
20260506092530 27 0 3.2 3.2 0.00 0.10 0.00 39 1011.0
20260506091031 28 90 1.6 3.2 0.00 0.10 0.00 39 1011.1
20260506085531 28 180 0.0 1.6 0.00 0.10 0.00 38 1011.4
20260506084031 28 90 0.0 1.6 0.00 0.10 0.00 36 1011.6
20260506082531 31 157 6.4 6.4 0.00 0.10 0.00 35 1011.6
20260506081031 31 157 6.4 6.4 0.00 0.10 0.00 34 1011.5
20260506072531 22 135 0.0 3.2 0.00 0.10 0.00 54 1011.9
20260506071031 21 112 0.0 3.2 0.00 0.10 0.00 57 1011.8